FW8040 Weather Reports


Display with metric or nautical units.
time (UTC)temp
F
wind
direction
speed
MPH
gust
MPH
rain 1hr
in
rain 24hr
in
rain mn
in
humidity
%
barometer
mb
20260508020050 54 0 0.0 0.0 0.00 0.36 0.36 95 1011.7
20260508015544 54 0 0.0 0.0 0.00 0.36 0.36 95 1011.5
20260508015044 54 0 0.0 0.0 0.00 0.36 0.36 95 1011.4
20260508014550 54 0 0.0 0.0 0.00 0.36 0.36 94 1011.4
20260508014045 54 0 0.0 0.0 0.00 0.36 0.36 94 1011.0
20260508013544 54 0 0.0 0.0 0.00 0.36 0.36 94 1010.8
20260508013052 54 0 0.0 0.0 0.00 0.36 0.36 94 1010.8
20260508012544 54 0 0.0 0.0 0.00 0.36 0.36 94 1010.7
20260508012043 54 0 0.0 0.0 0.00 0.36 0.36 94 1010.8
20260508011559 54 0 0.0 0.0 0.00 0.36 0.36 94 1010.8
20260508011045 54 0 0.0 0.0 0.00 0.36 0.36 94 1010.9
20260508010544 54 0 0.0 0.0 0.00 0.36 0.36 94 1011.0
20260508010101 54 0 0.0 0.0 0.00 0.36 0.36 94 1010.8
20260508005543 54 0 0.0 0.0 0.00 0.36 0.36 94 1010.6
20260508005043 54 0 0.0 0.0 0.00 0.36 0.36 94 1010.5
20260508004602 54 0 0.0 0.0 0.00 0.36 0.36 94 1010.4
20260508004044 54 0 0.0 0.0 0.00 0.36 0.36 94 1010.2
20260508003543 54 0 0.0 0.0 0.00 0.36 0.36 94 1010.2
20260508003058 54 0 0.0 0.0 0.00 0.36 0.36 94 1010.0
20260508002544 54 0 0.0 0.0 0.00 0.36 0.36 94 1010.1
20260508002043 54 0 0.0 0.0 0.00 0.36 0.36 94 1010.3
20260508001551 54 0 0.0 0.0 0.00 0.36 0.36 94 1010.3
20260508001043 54 0 0.0 0.0 0.00 0.36 0.36 94 1010.3
20260508000548 54 0 0.0 0.0 0.00 0.36 0.36 94 1010.2
20260508000054 54 0 0.0 0.0 0.00 0.36 0.36 94 1010.1
20260507235543 54 0 0.0 0.0 0.00 0.36 0.36 94 1010.0
20260507235043 54 0 0.0 0.0 0.00 0.36 0.36 94 1009.9
20260507234549 54 0 0.0 0.0 0.00 0.36 0.36 94 1009.7
20260507234043 54 0 0.0 0.0 0.00 0.36 0.36 94 1009.9
20260507233543 54 0 0.0 0.0 0.00 0.36 0.36 94 1009.5
20260507233052 54 0 0.0 0.0 0.00 0.36 0.36 94 1009.4
20260507232543 54 0 0.0 1.0 0.00 0.36 0.36 93 1009.2
20260507232045 54 0 0.0 1.0 0.00 0.36 0.36 93 1009.0
20260507231559 54 0 0.0 1.0 0.00 0.36 0.36 93 1009.2
20260507231043 54 0 0.0 2.0 0.00 0.36 0.36 94 1009.2
20260507230544 54 0 0.0 2.0 0.00 0.36 0.36 93 1009.3
20260507230052 54 327 0.0 1.0 0.00 0.36 0.36 94 1009.2
20260507225544 54 0 0.0 2.0 0.00 0.36 0.36 94 1009.2
20260507225043 54 0 0.0 2.0 0.00 0.36 0.36 94 1009.1
20260507224602 54 0 0.0 0.0 0.00 0.36 0.36 94 1009.2
20260507224044 54 0 0.0 1.0 0.00 0.36 0.36 94 1009.1
20260507223544 54 0 0.0 1.0 0.00 0.36 0.36 95 1009.1
20260507223050 54 0 0.0 1.0 0.00 0.36 0.36 95 1008.9
20260507222544 54 0 0.0 3.0 0.00 0.36 0.36 95 1008.9
20260507222042 54 0 0.0 3.0 0.00 0.36 0.36 94 1009.1
20260507221549 54 328 0.0 2.0 0.00 0.36 0.36 95 1009.2
20260507221044 54 319 0.0 1.0 0.00 0.36 0.36 95 1009.4
20260507220543 54 0 0.0 1.0 0.00 0.36 0.36 95 1009.3
20260507220050 54 331 0.0 1.0 0.00 0.36 0.36 95 1009.4
20260507215548 54 0 0.0 1.0 0.00 0.36 0.36 95 1009.3
20260507215042 54 0 0.0 1.0 0.00 0.36 0.36 95 1009.1
20260507214558 54 0 0.0 2.0 0.00 0.36 0.36 95 1009.0
20260507214043 54 0 0.0 2.0 0.00 0.36 0.36 95 1009.0
20260507213543 54 0 0.0 2.0 0.00 0.36 0.36 95 1009.2
20260507213104 54 86 0.0 1.0 0.00 0.36 0.36 95 1009.2
20260507212546 54 0 0.0 3.0 0.00 0.36 0.36 95 1008.9
20260507212043 54 0 0.0 3.0 0.00 0.36 0.36 95 1008.8
20260507211552 54 332 0.0 1.0 0.00 0.36 0.36 95 1009.0
20260507211042 54 337 0.0 2.0 0.00 0.36 0.36 95 1009.0
20260507210543 54 0 0.0 3.0 0.00 0.36 0.36 95 1008.8
20260507210055 54 332 0.0 3.0 0.00 0.36 0.36 95 1008.8
20260507205543 54 0 0.0 2.0 0.00 0.36 0.36 96 1008.6
20260507205042 54 0 0.0 2.0 0.00 0.36 0.36 95 1008.6
20260507204557 54 0 0.0 2.0 0.00 0.36 0.36 95 1008.5
20260507204041 54 345 0.0 2.0 0.00 0.36 0.36 95 1008.7
20260507203547 54 359 0.0 3.0 0.00 0.36 0.36 95 1008.8
20260507203050 54 0 0.0 3.0 0.00 0.36 0.36 95 1008.6
20260507202544 54 330 0.0 3.0 0.00 0.36 0.36 95 1008.5
20260507202043 54 104 0.0 7.0 0.01 0.36 0.36 95 1008.5
20260507201547 54 0 1.0 7.0 0.01 0.36 0.36 95 1008.5
20260507201041 55 54 0.0 3.0 0.01 0.36 0.36 95 1008.4
20260507200544 55 323 0.0 3.0 0.01 0.36 0.36 96 1008.4
20260507200053 55 0 0.0 2.0 0.01 0.36 0.36 96 1008.6
20260507195545 55 81 0.0 6.0 0.01 0.42 0.36 96 1008.5
20260507195047 55 358 0.0 6.0 0.01 0.42 0.36 96 1008.2
20260507194548 55 335 0.0 4.0 0.01 0.42 0.36 96 1008.1
20260507194043 55 335 0.0 4.0 0.01 0.42 0.36 96 1008.1
20260507193543 55 0 0.0 4.0 0.01 0.42 0.36 96 1008.2
20260507193101 56 0 0.0 2.0 0.01 0.42 0.36 96 1008.6
20260507192540 56 0 0.0 2.0 0.01 0.42 0.36 96 1008.6
20260507192044 56 0 0.0 1.0 0.00 0.41 0.35 96 1008.6
20260507191550 56 0 0.0 1.0 0.00 0.41 0.35 95 1008.7
20260507191043 56 328 0.0 1.0 0.00 0.41 0.35 96 1008.7
20260507190543 56 0 0.0 1.0 0.00 0.41 0.35 96 1008.8
20260507185544 56 25 0.0 1.0 0.00 0.43 0.35 96 1008.1
20260507185044 57 0 0.0 1.0 0.00 0.43 0.35 96 1008.1
20260507184548 57 0 0.0 2.0 0.00 0.43 0.35 96 1007.8
20260507184044 57 0 0.0 2.0 0.00 0.43 0.35 95 1008.3
20260507183542 57 345 0.0 3.0 0.00 0.43 0.35 95 1008.5
20260507183051 57 0 0.0 3.0 0.00 0.43 0.35 95 1008.2
20260507182546 57 34 0.0 1.0 0.00 0.43 0.35 95 1007.7
20260507182044 57 0 0.0 4.0 0.00 0.43 0.35 95 1007.7
20260507181556 58 0 0.0 4.0 0.00 0.43 0.35 95 1007.7
20260507181044 58 336 0.0 4.0 0.00 0.43 0.35 95 1007.6
20260507180544 58 0 0.0 4.0 0.00 0.43 0.35 95 1007.5
20260507180054 58 328 0.0 4.0 0.00 0.43 0.35 95 1007.7
20260507175543 58 339 0.0 2.0 0.01 0.43 0.35 95 1007.9
20260507175044 58 348 0.0 2.0 0.01 0.43 0.35 94 1008.2
20260507174552 59 349 0.0 2.0 0.01 0.43 0.35 94 1008.7
20260507174046 60 0 0.0 1.0 0.01 0.43 0.35 94 1008.7
20260507173543 60 198 0.0 4.0 0.01 0.43 0.35 94 1008.5
20260507173055 61 0 0.0 4.0 0.01 0.43 0.35 94 1007.7
20260507172548 62 336 0.0 3.0 0.01 0.43 0.35 93 1007.7
20260507172042 63 0 0.0 4.0 0.01 0.43 0.35 93 1007.5
20260507171554 65 340 0.0 4.0 0.01 0.43 0.35 94 1007.2
20260507171043 66 340 0.0 2.0 0.01 0.43 0.35 95 1006.9
20260507170544 67 0 0.0 1.0 0.02 0.43 0.35 97 1006.7
20260507170052 67 0 0.0 1.0 0.02 0.43 0.35 97 1006.8
20260507165548 67 0 0.0 1.0 0.01 0.42 0.34 97 1006.7
20260507165045 67 0 0.0 0.0 0.01 0.42 0.34 96 1007.0
20260507164549 67 0 0.0 0.0 0.01 0.42 0.34 96 1007.2
20260507164041 67 0 0.0 1.0 0.01 0.42 0.34 96 1007.5
20260507163545 67 0 0.0 1.0 0.01 0.42 0.34 96 1007.9
20260507163049 68 0 0.0 1.0 0.01 0.42 0.34 97 1007.9
20260507162543 68 0 0.0 0.0 0.01 0.42 0.34 98 1008.0
20260507162046 68 0 0.0 0.0 0.01 0.42 0.34 98 1008.0
20260507161552 68 0 0.0 0.0 0.01 0.42 0.34 97 1008.0
20260507161043 68 0 0.0 0.0 0.01 0.42 0.34 97 1008.1
20260507160547 68 0 0.0 0.0 0.01 0.41 0.33 97 1008.3
20260507160054 68 0 0.0 0.0 0.02 0.41 0.33 97 1008.4
20260507155543 68 0 0.0 0.0 0.02 0.41 0.33 97 1008.4
20260507155047 67 0 0.0 0.0 0.03 0.41 0.33 97 1008.5
20260507154551 67 0 0.0 0.0 0.03 0.41 0.33 97 1008.3
20260507154044 67 0 0.0 0.0 0.03 0.41 0.33 97 1008.0
20260507153547 67 0 0.0 0.0 0.04 0.41 0.33 97 1007.6
20260507153052 67 0 0.0 0.0 0.05 0.41 0.33 97 1007.8
20260507152543 67 0 0.0 0.0 0.06 0.41 0.33 97 1008.1
20260507152043 67 0 0.0 0.0 0.08 0.41 0.33 97 1008.1
20260507151549 67 0 0.0 0.0 0.09 0.41 0.33 97 1008.1
20260507151045 67 0 0.0 0.0 0.09 0.41 0.33 97 1008.2
20260507150543 67 0 0.0 0.0 0.09 0.40 0.32 97 1008.2
20260507150049 67 0 0.0 0.0 0.08 0.39 0.31 97 1008.2
20260507145544 67 0 0.0 0.0 0.08 0.39 0.31 97 1008.4
20260507145043 67 0 0.0 0.0 0.08 0.38 0.30 97 1008.4
20260507144550 67 0 0.0 0.0 0.08 0.38 0.30 97 1008.5
20260507144044 67 0 0.0 0.0 0.08 0.37 0.29 97 1008.5
20260507143543 67 0 0.0 0.0 0.08 0.37 0.29 97 1008.4
20260507143051 67 0 0.0 0.0 0.07 0.36 0.28 97 1008.5
20260507142543 67 0 0.0 0.0 0.06 0.35 0.27 97 1008.5
20260507142043 67 0 0.0 0.0 0.04 0.33 0.25 97 1008.5
20260507141559 67 0 0.0 0.0 0.03 0.32 0.24 97 1008.3
20260507141043 67 0 0.0 0.0 0.03 0.32 0.24 97 1008.2
20260507140543 67 0 0.0 1.0 0.02 0.31 0.23 97 1008.5
20260507140107 67 0 0.0 1.0 0.02 0.31 0.23 97 1008.7
20260507135543 67 0 0.0 1.0 0.02 0.31 0.23 97 1008.7
20260507135044 67 0 0.0 1.0 0.01 0.30 0.22 97 1008.9
20260507134551 67 0 0.0 1.0 0.01 0.30 0.22 97 1009.0
20260507134043 67 0 0.0 1.0 0.00 0.29 0.21 97 1009.0
20260507133544 66 0 0.0 1.0 0.00 0.29 0.21 97 1009.0
20260507133057 66 0 0.0 0.0 0.00 0.29 0.21 97 1008.9
20260507132543 66 0 0.0 0.0 0.00 0.29 0.21 97 1008.9
20260507132043 66 0 0.0 0.0 0.00 0.29 0.21 97 1008.8
20260507131603 66 0 0.0 0.0 0.00 0.29 0.21 97 1008.9
20260507131049 66 0 0.0 0.0 0.00 0.29 0.21 97 1009.0
20260507130543 66 0 0.0 0.0 0.00 0.29 0.21 97 1009.0
20260507130109 66 0 0.0 0.0 0.00 0.29 0.21 97 1009.0
20260507125544 66 0 0.0 0.0 0.00 0.29 0.21 97 1008.9
20260507125044 66 0 0.0 0.0 0.00 0.29 0.21 97 1009.0
20260507124606 66 0 0.0 0.0 0.00 0.29 0.21 97 1009.0
20260507124044 66 0 0.0 0.0 0.00 0.29 0.21 97 1009.0
20260507123545 66 0 0.0 0.0 0.01 0.29 0.21 97 1009.0
20260507123058 66 0 0.0 0.0 0.01 0.29 0.21 97 1009.0
20260507122543 66 0 0.0 0.0 0.01 0.29 0.21 97 1008.9
20260507122045 66 0 0.0 0.0 0.02 0.29 0.21 97 1008.8
20260507121556 66 0 0.0 0.0 0.03 0.29 0.21 97 1008.9
20260507121044 66 0 0.0 0.0 0.03 0.29 0.21 97 1009.0
20260507120543 66 0 0.0 0.0 0.03 0.29 0.21 97 1009.0
20260507120050 66 0 0.0 0.0 0.03 0.29 0.21 97 1009.1
20260507115544 66 0 0.0 0.0 0.03 0.29 0.21 97 1009.0
20260507115043 66 0 0.0 0.0 0.03 0.29 0.21 97 1008.8
20260507114605 65 0 0.0 0.0 0.03 0.29 0.21 97 1009.2
20260507114046 65 0 0.0 0.0 0.03 0.29 0.21 97 1009.3
20260507113543 65 0 0.0 0.0 0.02 0.28 0.20 97 1009.3
20260507113053 65 0 0.0 0.0 0.02 0.28 0.20 97 1009.3
20260507112544 65 0 0.0 0.0 0.02 0.28 0.20 97 1009.3
20260507112044 65 0 0.0 0.0 0.01 0.27 0.19 97 1009.2
20260507111551 65 0 0.0 0.0 0.00 0.26 0.18 97 1009.2
20260507111043 65 0 0.0 0.0 0.00 0.26 0.18 97 1009.3
20260507110544 65 0 0.0 0.0 0.01 0.26 0.18 97 1009.3
20260507110051 65 0 0.0 0.0 0.01 0.26 0.18 97 1009.2
20260507105544 65 0 0.0 0.0 0.01 0.26 0.18 97 1008.9
20260507105044 65 0 0.0 0.0 0.01 0.26 0.18 97 1008.9
20260507104555 65 0 0.0 0.0 0.01 0.26 0.18 97 1008.8
20260507104044 65 0 0.0 0.0 0.01 0.26 0.18 97 1008.7
20260507103543 65 0 0.0 0.0 0.01 0.26 0.18 97 1008.9
20260507103054 65 0 0.0 0.0 0.01 0.26 0.18 97 1009.0
20260507102544 65 0 0.0 0.0 0.02 0.26 0.18 97 1008.7
20260507102044 65 0 0.0 0.0 0.02 0.26 0.18 97 1008.8
20260507101553 65 0 0.0 0.0 0.02 0.26 0.18 97 1008.8
20260507101044 65 0 0.0 0.0 0.02 0.26 0.18 97 1008.8
20260507100543 65 0 0.0 0.0 0.01 0.25 0.17 96 1008.9
20260507100053 65 0 0.0 0.0 0.01 0.25 0.17 96 1008.8
20260507095544 64 0 0.0 0.0 0.01 0.25 0.17 96 1008.8
20260507095044 65 0 0.0 0.0 0.01 0.25 0.17 96 1008.9
20260507094554 65 0 0.0 0.0 0.01 0.25 0.17 96 1008.9
20260507094043 64 0 0.0 0.0 0.01 0.25 0.17 96 1008.9
20260507093543 64 0 0.0 0.0 0.01 0.25 0.17 96 1009.1
20260507093050 64 0 0.0 0.0 0.01 0.25 0.17 96 1009.0
20260507092544 64 0 0.0 0.0 0.00 0.24 0.16 96 1008.8
20260507092046 64 0 0.0 0.0 0.00 0.24 0.16 96 1008.8
20260507091549 64 0 0.0 0.0 0.00 0.24 0.16 96 1009.0
20260507091044 64 0 0.0 0.0 0.00 0.24 0.16 96 1009.0
20260507090544 64 0 0.0 0.0 0.01 0.24 0.16 96 1009.1
20260507090054 64 0 0.0 0.0 0.01 0.24 0.16 96 1009.1
20260507085544 64 0 0.0 0.0 0.01 0.24 0.16 96 1009.1
20260507085044 64 0 0.0 0.0 0.01 0.24 0.16 96 1008.9
20260507084553 64 0 0.0 0.0 0.02 0.24 0.16 96 1009.0
20260507084043 64 0 0.0 0.0 0.02 0.24 0.16 96 1009.2
20260507083544 64 0 0.0 0.0 0.02 0.24 0.16 96 1009.2
20260507083057 64 0 0.0 0.0 0.02 0.24 0.16 96 1009.5
20260507082544 64 0 0.0 0.0 0.02 0.24 0.16 96 1009.6
20260507082046 64 0 0.0 0.0 0.02 0.24 0.16 96 1009.8
20260507081548 64 0 0.0 0.0 0.02 0.24 0.16 96 1009.9
20260507081044 64 0 0.0 0.0 0.02 0.24 0.16 96 1009.8
20260507080543 64 0 0.0 0.0 0.01 0.23 0.15 96 1009.3
20260507080116 65 0 0.0 0.0 0.01 0.23 0.15 96 1009.3
20260507075546 65 0 0.0 0.0 0.01 0.23 0.15 96 1009.4
20260507075044 65 0 0.0 0.0 0.01 0.23 0.15 96 1009.3
20260507074557 65 0 0.0 0.0 0.00 0.22 0.14 96 1009.6
20260507074043 65 0 0.0 0.0 0.00 0.22 0.14 96 1009.8
20260507073543 65 0 0.0 0.0 0.00 0.22 0.14 96 1010.1
20260507073057 65 0 0.0 0.0 0.00 0.22 0.14 96 1010.0
20260507072544 65 0 0.0 0.0 0.00 0.22 0.14 96 1010.1
20260507072046 64 0 0.0 0.0 0.00 0.22 0.14 95 1010.0
20260507071600 64 0 0.0 0.0 0.00 0.22 0.14 95 1009.9
20260507071045 64 0 0.0 0.0 0.00 0.22 0.14 95 1010.0
20260507070544 65 0 0.0 0.0 0.00 0.22 0.14 95 1010.0
20260507070049 65 0 0.0 0.0 0.00 0.22 0.14 95 1009.9
20260507065544 65 0 0.0 0.0 0.00 0.22 0.14 95 1009.7
20260507065046 65 0 0.0 0.0 0.00 0.22 0.14 95 1010.2
20260507064558 65 0 0.0 0.0 0.00 0.22 0.14 95 1010.2
20260507064044 65 0 0.0 0.0 0.00 0.22 0.14 95 1010.6
20260507063543 65 0 0.0 0.0 0.00 0.22 0.14 95 1010.8
20260507063051 65 0 0.0 0.0 0.01 0.22 0.14 95 1010.7
20260507062543 65 0 0.0 0.0 0.01 0.22 0.14 95 1010.8
20260507062044 65 0 0.0 0.0 0.02 0.22 0.14 95 1010.4
20260507061550 65 0 0.0 0.0 0.03 0.22 0.14 95 1010.3
20260507061043 65 0 0.0 0.0 0.05 0.22 0.14 95 1010.7
20260507060543 65 0 0.0 0.0 0.06 0.22 0.14 95 1011.0
20260507060052 65 0 0.0 0.0 0.06 0.22 0.14 95 1011.0
20260507055543 65 0 0.0 0.0 0.07 0.22 0.14 95 1010.8
20260507055045 65 0 0.0 0.0 0.08 0.22 0.14 95 1011.0
20260507054604 65 0 0.0 0.0 0.09 0.22 0.14 95 1011.2
20260507054043 65 0 0.0 0.0 0.09 0.22 0.14 94 1011.0
20260507053544 65 0 0.0 0.0 0.10 0.22 0.14 94 1010.4
20260507053056 65 0 0.0 0.0 0.10 0.21 0.13 94 1009.9
20260507052548 66 0 0.0 1.0 0.13 0.21 0.13 94 1009.9
20260507052044 66 0 0.0 1.0 0.12 0.20 0.12 94 1010.1
20260507051550 66 0 0.0 1.0 0.11 0.19 0.11 94 1010.2
20260507051043 66 0 0.0 0.0 0.09 0.17 0.09 93 1010.3
20260507050544 66 0 0.0 0.0 0.08 0.16 0.08 93 1010.7
20260507050055 66 0 0.0 0.0 0.07 0.15 0.07 93 1010.4
20260507045544 66 0 0.0 1.0 0.06 0.14 0.06 92 1011.1
20260507045043 67 0 0.0 1.0 0.06 0.14 0.06 92 1012.0
20260507044614 67 0 0.0 1.0 0.05 0.13 0.05 92 1012.3
20260507044042 67 297 0.0 1.0 0.05 0.13 0.05 91 1012.3
20260507043544 68 0 0.0 1.0 0.04 0.12 0.04 90 1012.4
20260507043048 68 0 0.0 1.0 0.02 0.10 0.02 89 1012.3
20260507042544 68 0 0.0 1.0 0.00 0.08 0.00 88 1012.3
20260507042044 68 240 0.0 1.0 0.00 0.08 0.00 88 1012.2
20260507041558 68 0 0.0 1.0 0.00 0.08 0.00 88 1012.1
20260507041044 68 0 0.0 0.0 0.00 0.08 0.00 89 1012.0
20260507040544 68 0 0.0 0.0 0.00 0.08 0.00 89 1012.0
20260507040058 68 0 0.0 0.0 0.00 0.08 0.00 89 1011.7
20260507035544 68 0 0.0 0.0 0.00 0.08 0.08 89 1011.4
20260507035044 68 0 0.0 0.0 0.00 0.08 0.08 88 1011.4
20260507034556 68 0 0.0 0.0 0.00 0.08 0.08 87 1011.0
20260507034043 69 0 0.0 0.0 0.00 0.08 0.08 86 1010.8
20260507033544 69 0 0.0 0.0 0.00 0.08 0.08 86 1010.9
20260507033047 69 0 0.0 0.0 0.00 0.08 0.08 85 1011.1
20260507032545 69 0 0.0 0.0 0.00 0.08 0.08 84 1011.5
20260507032043 69 0 0.0 0.0 0.00 0.08 0.08 84 1011.6
20260507031548 69 0 0.0 0.0 0.00 0.08 0.08 84 1011.5
20260507031043 68 0 0.0 0.0 0.00 0.08 0.08 85 1011.5
20260507030545 68 0 0.0 0.0 0.00 0.08 0.08 86 1011.3
20260507030053 68 0 0.0 0.0 0.00 0.08 0.08 86 1011.1
20260507025544 68 0 0.0 0.0 0.00 0.08 0.08 87 1011.1
20260507025044 68 0 0.0 0.0 0.00 0.08 0.08 87 1011.1
20260507024548 68 0 0.0 0.0 0.00 0.08 0.08 87 1011.0
20260507024043 68 0 0.0 0.0 0.00 0.08 0.08 88 1010.9
20260507023544 68 0 0.0 0.0 0.00 0.08 0.08 88 1010.9
20260507023048 68 0 0.0 0.0 0.00 0.08 0.08 89 1010.9
20260507022544 68 0 0.0 0.0 0.00 0.08 0.08 89 1011.0
20260507022044 68 0 0.0 0.0 0.00 0.08 0.08 89 1010.8
20260507021548 68 0 0.0 0.0 0.00 0.08 0.08 90 1010.8
20260507021044 68 0 0.0 0.0 0.00 0.08 0.08 90 1010.8
20260507020544 68 0 0.0 0.0 0.00 0.08 0.08 90 1010.8